Regional Weather Roundup
Issued by NWS

Home | Current Version | Previous Version | Graphics & Text | Print | Product List | Glossary On
Versions: 1 2 3 4 5 6 7 8 9 10 11 12 13 14 15 16 17 18 19 20 21 22 23 24 25 26 27 28 29 30 31 32 33 34 35 36 37 38 39 40 41 42 43 44 45 46 47 48 49 50
775
ASUS43 KIND 300259
RWRIN

WEATHER ROUNDUP FOR INDIANA
NATIONAL WEATHER SERVICE INDIANAPOLIS IN
1100 PM EDT SAT APR 29 2017

NOTE: "FAIR" INDICATES FEW OR NO CLOUDS BELOW 12,000 FEET WITH NO
SIGNIFICANT WEATHER AND/OR OBSTRUCTIONS TO VISIBILITY.

* - STATION DOES NOT REPORT WEATHER SUCH AS PRECIPITATION OR FOG.

+ - STATION NOT QUALITY CONTROLLED BY THE NATIONAL WEATHER SERVICE.
    USE DATA WITH CAUTION...ESPECIALLY DEWPOINT AND RELATIVE
    HUMIDITY OBSERVATIONS.

INZ001>003-010>013-019-020-300400-
NORTHWEST INDIANA

CITY           SKY/WX    TMP DP  RH WIND       PRES   REMARKS
GARY /AIRPORT/ LGT RAIN  46  46 100 NE25G52   29.93F
MONTICELLO +   RAIN      50  48  95 E12G18    29.92F
RENSSELAER +   RAIN      50  46  87 E21       29.94R
VALPARAISO     RAIN      49  47  93 E32G38    29.94F FOG

$$

LMZ046-743>745-300400-
SOUTHERN LAKE MICHIGAN

STATION/POSITION TIME  TEMP    WIND        PRES    WAVE
                       AIR SEA DIR/SP/G            HT
                 (UTC) (F)     (DEG/KT/KT) (MB)    (FT)
BURNS HARBOR     0240   48      70/ 26/ 34 1013.2F
MICHIGAN CITY    0230   47      50/ 31/ 34   N/A
5NW MICH CITY    0250   47 47                N/A     9

$$

INZ004-005-014>016-021>024-300400-
NORTH CENTRAL INDIANA

CITY           SKY/WX    TMP DP  RH WIND       PRES   REMARKS
GOSHEN         CLOUDY    48  37  65 E16G29    30.02F
PERU/GRISSOM   TSTM      48  48 100 NE9G20    30.02R FOG
SOUTH BEND     RAIN      48  41  76 E18G29    29.99F

$$

INZ006>009-017-018-025>027-300400-
NORTHEAST INDIANA

CITY           SKY/WX    TMP DP  RH WIND       PRES   REMARKS
ANGOLA *+      CLOUDY    46  34  61 E20       30.06F
FORT WAYNE     CLOUDY    46  40  79 E28G40    30.02F
KENDALLVILLE + RAIN      45  37  73 E18G26    30.04F

$$

INZ028-029-035-036-043>045-051>053-300400-
WEST CENTRAL INDIANA

CITY           SKY/WX    TMP DP  RH WIND       PRES   REMARKS
GREENCASTLE +  RAIN      61  61 100 CALM      29.95F
LAFAYETTE      LGT RAIN  53  53 100 SE9       29.94R FOG
TERRE HAUTE    LGT RAIN  63  61  93 E6        29.91F

$$

INZ030>032-037>040-046>048-054>057-064-065-300400-
CENTRAL INDIANA

CITY           SKY/WX    TMP DP  RH WIND       PRES   REMARKS
INDIANAPOLIS   TSTM      60  56  86 NW18      30.00R
-EAGLE CREEK   TSTM      58  54  86 N12       29.98R FOG
KOKOMO +       TSTM      50  48  93 NE6       30.06R FOG
SHELBYVILLE    TSTM      63  58  83 E16       29.92R

$$

INZ033-034-041-042-049-050-058-059-300400-
EAST CENTRAL INDIANA

CITY           SKY/WX    TMP DP  RH WIND       PRES   REMARKS
MUNCIE         LGT RAIN  51  49  92 E22G30    29.96F FOG
RICHMOND +     CLOUDY    55  55 100 E14       29.99F FOG

$$

INZ060-061-067>069-081>083-085>088-300400-
SOUTHWEST INDIANA

CITY           SKY/WX    TMP DP  RH WIND       PRES   REMARKS
EVANSVILLE     CLOUDY    70  61  73 NW14G26   29.93R

$$

INZ062-063-066-070>080-084-089>092-300400-
SOUTH CENTRAL AND SOUTHEAST INDIANA

CITY           SKY/WX    TMP DP  RH WIND       PRES   REMARKS
BLOOMINGTON    TSTM      73  64  73 NW10G21   29.93R
MADISON *+     CLOUDY    75  64  69 SE3       29.97R
SEYMOUR +      MOCLDY    75  66  73 SE12      29.92R

$$





USA.gov is the U.S. government's official web portal to all federal, state and local government web resources and services.